Flag for Cyprus Weather past 2 weeks in Larnaca, Cyprus

66 °F

Passing clouds.

Feels Like: 66 °F
Forecast: 52 / 75 °F
Wind: 8 mph from Northwest

Location: Larnaca Airport

Current Time: Nov 27, 2015 at 6:34:29 PM

Latest Report: Nov 27, 2015 at 6:00 PM

Visibility: N/A

Pressure: 30.04 "Hg

Humidity: 78%

Dew point: 59 °F

Location of LarnacaLocation

Historic Weather in Larnaca — Graph


Larnaca temperature yesterday

Maximum temperature yesterday: 77 °F (at 10:00 AM)
Minimum temperature yesterday: 61 °F (at 12:00 AM)
Average temperature yesterday: 69 °F

Past Weeks' High & Low Weather Summary

High79 °F (Nov 13, 12:30 PM)100% (Nov 27, 7:00 AM)30.24 "Hg (Nov 27, 7:00 AM)
Low54 °F (Nov 19, 4:00 AM)15% (Nov 24, 10:30 AM)29.74 "Hg (Nov 16, 1:00 PM)
Average66 °F57%30.04 "Hg
* Reported Nov 12 5:00 PM — Nov 27 5:30 PM, Larnaca, Weather by CustomWeather, © 2015

Note: Actual official high and low records may vary slightly from our data, if they occured in-between our weather recording intervals... More about our weather records


Larnaca weather history for previous 24 hours

Time TempWeatherWind HumidityBarometerVisibility
5:30 PM
Fri, Nov 27
68 °FPassing clouds.9 mph69%30.01 "HgN/A
5:00 PM70 °FPassing clouds.8 mph64%30.01 "HgN/A
4:30 PM73 °FPassing clouds.8 mph69%30.01 "Hg5 mi
4:00 PM73 °FScattered clouds.13 mph69%29.98 "Hg5 mi
3:30 PM75 °FScattered clouds.15 mph65%29.98 "Hg5 mi
3:00 PM73 °FScattered clouds.13 mph69%29.98 "HgN/A
2:30 PM75 °FPassing clouds.16 mph61%29.98 "HgN/A
2:00 PM75 °FPassing clouds.16 mph61%29.98 "HgN/A
1:30 PM75 °FPassing clouds.15 mph61%29.98 "HgN/A
1:00 PM75 °FPassing clouds.15 mph57%29.98 "HgN/A
12:30 PM77 °FPassing clouds.15 mph54%29.98 "HgN/A
12:00 PM75 °FPassing clouds.13 mph57%29.98 "HgN/A
11:30 AM75 °FPassing clouds.10 mph57%30.01 "HgN/A
11:00 AM75 °FPassing clouds.10 mph61%30.01 "HgN/A
10:30 AM75 °FPassing clouds.12 mph61%30.01 "HgN/A
10:00 AM75 °FPassing clouds.9 mph61%30.01 "HgN/A
9:00 AM73 °FPassing clouds.2 mph69%30.01 "HgN/A
8:30 AM68 °FPassing clouds.2 mph78%30.01 "HgN/A
8:00 AM66 °FPassing clouds.5 mph88%29.98 "HgN/A
7:30 AM63 °FPassing clouds.5 mph94%29.98 "HgN/A
7:00 AM57 °FPassing clouds.6 mph100%29.98 "HgN/A
6:00 AM57 °FPassing clouds.6 mph94%29.95 "HgN/A
5:30 AM57 °FPassing clouds.2 mph94%29.95 "HgN/A
5:00 AM57 °FPassing clouds.2 mph94%29.95 "HgN/A
4:30 AM57 °FPassing clouds.1 mph94%29.95 "HgN/A
4:00 AM59 °FPassing clouds.1 mph94%29.95 "HgN/A
3:30 AM57 °FPassing clouds.3 mph94%29.95 "HgN/A
3:00 AM57 °FPassing clouds.2 mph94%29.95 "HgN/A
2:30 AM57 °FPassing clouds.No wind94%29.95 "HgN/A
2:00 AM59 °FPassing clouds.1 mph94%29.95 "HgN/A
1:30 AM59 °FPassing clouds.1 mph88%29.95 "HgN/A
1:00 AM59 °FPassing clouds.5 mph94%29.95 "HgN/A
12:00 AM59 °FPassing clouds.3 mph82%29.95 "HgN/A
11:30 PM
Thu, Nov 26
61 °FPassing clouds.No wind83%29.95 "HgN/A
11:00 PM63 °FPassing clouds.No wind83%29.95 "HgN/A
10:30 PM63 °FPassing clouds.2 mph83%29.95 "HgN/A
10:00 PM64 °FPassing clouds.No wind78%29.95 "HgN/A
9:30 PM64 °FPassing clouds.3 mph83%29.95 "HgN/A
9:00 PM68 °FPassing clouds.3 mph73%29.92 "HgN/A
8:30 PM70 °FPassing clouds.7 mph69%29.92 "HgN/A
8:00 PM70 °FPassing clouds.8 mph69%29.92 "HgN/A
7:30 PM70 °FPassing clouds.9 mph69%29.92 "HgN/A
7:00 PM70 °FPassing clouds.12 mph69%29.89 "HgN/A
6:30 PM70 °FPassing clouds.10 mph69%29.89 "HgN/A
6:00 PM70 °FPassing clouds.12 mph73%29.89 "HgN/A
Weather by CustomWeather, © 2015

See weather overviewHow to use our weather pages